Voltar ao catálogo

IUS R/B(2)

AtivoMEO
NORAD 20357·ROCKET BODY·🇺🇸 United States

Lançado Nov 23, 1989 de Cape Canaveral Space Force Station

Loading…

Próximas Passagens (próximas 24 horas)

TLE

AtualizadoSource: Space-Track

Época: Sep 11, 2026, 18:11 UTC

1 20357U 89090D   26254.75769477 -.00000161  00000-0  00000-0 0  9993
2 20357  17.2036 341.8656 0334325 104.6032 259.1351  0.99515800 26222

Acompanhe IUS R/B(2) em tempo real com AllMySat

Download on the App Store